Regional Weather Roundup
Issued by NWS

Home | Current Version | Previous Version | Text Only | Print | Product List | Glossary On
Versions: 1 2 3 4 5 6 7 8 9 10 11 12 13 14 15 16 17 18 19 20 21 22 23 24 25 26 27 28 29 30 31 32 33 34 35 36 37 38 39 40 41 42 43 44 45 46 47 48 49 50
000
ASUS45 KABQ 252101
RWRNM
NEW MEXICO REGIONAL WEATHER ROUNDUP
NATIONAL WEATHER SERVICE ALBUQUERQUE NM
300 PM MDT FRI MAY 25 2018

NOTE: "FAIR" MEANS FEW OR NO CLOUDS BELOW 12,000 FEET AGL WITH NO
       SIGNIFICANT WEATHER OR OBSTRUCTIONS TO VISION.

      THIS PRODUCT IS RELEASED AS TWO VERSIONS.  ONE VERSION NEAR
      THE TOP OF THE HOUR CONTAINING PRELIMINARY DATA FROM ALBUQUERQUE
      AND OTHER STATIONS.  A FINAL VERSION WITH ADDITIONAL DATA IS
      ISSUED ABOUT 10 MINUTES AFTER THE HOUR.

NMZ501-503-504-510>518-252200-
NORTHWEST PLATEAU/NORTHCENTRAL MOUNTAINS

CITY           SKY/WX    TMP DP  RH WIND       PRES   REMARKS
FARMINGTON     FAIR      86   8   5 VRB7      30.08F
LOS ALAMOS     FAIR      81  16   8 S18G26    30.21F
SANTA FE       FAIR      87  12   6 W17G25    30.15F
TAOS           FAIR      85  12   6 W20       30.20F
ANGEL FIRE     FAIR      74  20  12 NW15G25   30.28F

$$
NMZ402-403-502-505>509-252200-
WESTCENTRAL MOUNTAINS/SOUTHWEST MOUNTAINS

CITY           SKY/WX    TMP DP  RH WIND       PRES   REMARKS
GALLUP         FAIR      84   1   4 W14G21    30.18F
GRANTS         FAIR      87   6   5 W7G16     30.18F
SILVER CITY    FAIR      90   6   4 W16       30.14F

$$
NMZ407-409-411-412-252200-
SOUTHERN DESERTS

CITY           SKY/WX    TMP DP  RH WIND       PRES   REMARKS
DEMING         FAIR      94   7   4 W15G22    30.07F
LAS CRUCES     FAIR      95  10   4 W9G21     30.08F
ALAMOGORDO     FAIR      93  16   6 W6        30.05F
T OR C         FAIR      93   2   3 VRB7G20   30.06F

$$
NMZ519>523-252200-
CENTRAL VALLEYS/CENTRAL HIGHLANDS

CITY           SKY/WX    TMP DP  RH WIND       PRES   REMARKS
ALBUQUERQUE    FAIR      87  19   8 W13       30.10F
DOUBLE EAGLE   SUNNY     86  18   8 VRB7      30.15F
MORIARTY ARPT  FAIR      89  19   7 E3G18     30.16S
CLINES CORNERS FAIR      83  20   9 MISG      30.22F
BELEN          FAIR      89  19   7 SE6       30.09F
SOCORRO        FAIR      92  14   6 SE13G20   30.06F

$$
NMZ524>526-539-540-252200-
SOUTHCENTRAL MOUNTAINS

CITY           SKY/WX    TMP DP  RH WIND       PRES   REMARKS
RUIDOSO        FAIR      82  10   6 NW13G23   30.23F

$$
NMZ527>531-252200-
NORTHEAST HIGHLANDS/NORTHEAST PLAINS

CITY           SKY/WX    TMP DP  RH WIND       PRES   REMARKS
LAS VEGAS      FAIR      85  16   7 S17G31    30.15F
RATON          FAIR      87  20   8 SW13G21   30.10F
CLAYTON        FAIR      89  38  16 CALM      30.03F

$$
NMZ532>537-252200-
EASTCENTRAL PLAINS

CITY           SKY/WX    TMP DP  RH WIND       PRES   REMARKS
SANTA ROSA     FAIR      94  21   7 SW7       30.00F
TUCUMCARI      FAIR      95  30  10 VRB5      29.95F
CANNON AFB     NOT AVBL
CLOVIS AIRPORT FAIR      92  31  11 SW10G18   30.01F

$$
NMZ028-029-538-252200-
SOUTHEAST PLAINS

CITY           SKY/WX    TMP DP  RH WIND       PRES   REMARKS
ROSWELL        FAIR      98  21   6 S7        29.95F
ARTESIA        FAIR      97  25   7 S7G15     29.95F
CARLSBAD       PTSUNNY  100  23   6 W13G22    29.93F
HOBBS          SUNNY     97  28   9 SW13      29.97F


$$



USA.gov is the U.S. government's official web portal to all federal, state and local government web resources and services.